TOLEDO1 KIND-

Flight info

Callsign TOLEDO1
Flight time N/A
Altitude VFR/020
Route NORTHEAST +FF
Aircraft F16/M-DOV/C

Departure

Time 2026-05-05 23:23
Airport Indianapolis International Airport (KIND)

Arrival

Time N/A
Airport -
Time Latitude Longitude Altitude Speed Heading
2026-05-05 23:09 40.48373 -85.68667 869 ft 0 kts 37°
2026-05-05 23:10 40.48728 -85.68310 858 ft 172 kts 37°
2026-05-05 23:11 40.50273 -85.66837 1351 ft 290 kts 34°
2026-05-05 23:11 40.50392 -85.64932 1993 ft 195 kts 97°
2026-05-05 23:11 40.50123 -85.63328 2098 ft 183 kts 121°
2026-05-05 23:11 40.49392 -85.61887 2375 ft 194 kts 121°
2026-05-05 23:12 40.48624 -85.60383 2735 ft 196 kts 116°
2026-05-05 23:12 40.48269 -85.58699 2897 ft 205 kts 90°
2026-05-05 23:12 40.48324 -85.56682 2495 ft 239 kts 77°
2026-05-05 23:12 40.48647 -85.54394 2096 ft 270 kts 75°
2026-05-05 23:13 40.48340 -85.52128 1477 ft 298 kts 175°
2026-05-05 23:13 40.47023 -85.53703 1969 ft 256 kts 236°
2026-05-05 23:13 40.45543 -85.55076 2022 ft 268 kts 213°
2026-05-05 23:13 40.43900 -85.56319 2214 ft 275 kts 210°
2026-05-05 23:14 40.42207 -85.57424 2399 ft 268 kts 206°
2026-05-05 23:14 40.40503 -85.58359 2553 ft 262 kts 202°
2026-05-05 23:14 40.38790 -85.59121 2676 ft 258 kts 198°
2026-05-05 23:14 40.37044 -85.59717 2752 ft 265 kts 194°
2026-05-05 23:15 40.35197 -85.60156 2803 ft 275 kts 189°
2026-05-05 23:15 40.33266 -85.60463 2900 ft 283 kts 188°
2026-05-05 23:15 40.31284 -85.60755 2972 ft 290 kts 188°
2026-05-05 23:15 40.29257 -85.61014 3078 ft 295 kts 189°
2026-05-05 23:16 40.27198 -85.61339 3239 ft 300 kts 191°
2026-05-05 23:16 40.25143 -85.61918 3366 ft 304 kts 196°
2026-05-05 23:16 40.23032 -85.62359 3436 ft 310 kts 187°
2026-05-05 23:16 40.20880 -85.62750 3490 ft 315 kts 193°
2026-05-05 23:17 40.18744 -85.63465 3523 ft 319 kts 201°
2026-05-05 23:17 40.16593 -85.64280 3474 ft 328 kts 189°
2026-05-05 23:17 40.14284 -85.63885 2654 ft 340 kts 168°
2026-05-05 23:17 40.12208 -85.63355 2651 ft 281 kts 170°
2026-05-05 23:18 40.10574 -85.63466 2647 ft 211 kts 205°
2026-05-05 23:18 40.09298 -85.64104 3087 ft 191 kts 206°
2026-05-05 23:18 40.07867 -85.64947 3474 ft 265 kts 207°
2026-05-05 23:18 40.06012 -85.66027 3623 ft 309 kts 203°
2026-05-05 23:19 40.04218 -85.66928 3570 ft 246 kts 204°
2026-05-05 23:19 40.02617 -85.67750 3449 ft 244 kts 204°
2026-05-05 23:19 40.01075 -85.68572 3403 ft 236 kts 204°
2026-05-05 23:19 39.99508 -85.69383 3419 ft 249 kts 204°
2026-05-05 23:20 39.97877 -85.70250 3502 ft 257 kts 208°
2026-05-05 23:20 39.96144 -85.71117 3372 ft 274 kts 199°
2026-05-05 23:20 39.94320 -85.72003 3267 ft 286 kts 205°
2026-05-05 23:20 39.92466 -85.73088 3159 ft 299 kts 206°
2026-05-05 23:21 39.90514 -85.74175 3045 ft 312 kts 206°
2026-05-05 23:21 39.88490 -85.75337 2930 ft 324 kts 204°
2026-05-05 23:21 39.86427 -85.76495 2989 ft 297 kts 207°
2026-05-05 23:21 39.84680 -85.77519 3000 ft 274 kts 204°
2026-05-05 23:22 39.82928 -85.78339 2587 ft 256 kts 200°
2026-05-05 23:22 39.81532 -85.79547 1935 ft 238 kts 235°
2026-05-05 23:22 39.80564 -85.81083 1736 ft 206 kts 232°
2026-05-05 23:22 39.79479 -85.82375 2807 ft 216 kts 222°
2026-05-05 23:23 39.78285 -85.83684 3967 ft 237 kts 223°
2026-05-05 23:23 39.76996 -85.85184 4158 ft 251 kts 223°
2026-05-05 23:23 39.75731 -85.86758 4206 ft 252 kts 234°
2026-05-05 23:23 39.74659 -85.88647 3878 ft 270 kts 234°
2026-05-05 23:24 39.73496 -85.90646 3530 ft 285 kts 234°
2026-05-05 23:24 39.72273 -85.92700 3425 ft 287 kts 234°
2026-05-05 23:24 39.71090 -85.94686 3383 ft 263 kts 233°
2026-05-05 23:24 39.70059 -85.96373 3747 ft 216 kts 231°
2026-05-05 23:25 39.69140 -85.97759 3985 ft 198 kts 228°
2026-05-05 23:25 39.68179 -85.99106 3790 ft 208 kts 229°
2026-05-05 23:25 39.67205 -86.00479 3827 ft 205 kts 227°
2026-05-05 23:25 39.66204 -86.01850 3943 ft 217 kts 226°
2026-05-05 23:26 39.65113 -86.03321 3965 ft 236 kts 226°
2026-05-05 23:26 39.63894 -86.04853 3899 ft 248 kts 224°
2026-05-05 23:26 39.62629 -86.06379 3808 ft 241 kts 223°
2026-05-05 23:26 39.61982 -86.08102 3790 ft 201 kts 253°
2026-05-05 23:27 39.61617 -86.09786 3869 ft 187 kts 253°
2026-05-05 23:27 39.61251 -86.11342 3993 ft 174 kts 249°
2026-05-05 23:27 39.60819 -86.12817 3973 ft 178 kts 258°
2026-05-05 23:27 39.60518 -86.14629 3747 ft 247 kts 257°
2026-05-05 23:28 39.60137 -86.16946 3470 ft 260 kts 257°
2026-05-05 23:28 39.59697 -86.19154 3223 ft 245 kts 256°
2026-05-05 23:28 39.59172 -86.21191 3628 ft 237 kts 252°
2026-05-05 23:28 39.58684 -86.23125 3471 ft 212 kts 255°
2026-05-05 23:29 39.58321 -86.24836 2996 ft 182 kts 258°
2026-05-05 23:29 39.57956 -86.26359 2867 ft 218 kts 256°
2026-05-05 23:29 39.57466 -86.28158 2810 ft 204 kts 252°
2026-05-05 23:29 39.56948 -86.29870 2741 ft 203 kts 253°
2026-05-05 23:30 39.56551 -86.31606 2799 ft 203 kts 260°
2026-05-05 23:30 39.56172 -86.33519 3121 ft 235 kts 261°
2026-05-05 23:30 39.55817 -86.35482 3312 ft 210 kts 256°
2026-05-05 23:30 39.55403 -86.37274 3134 ft 205 kts 256°
2026-05-05 23:31 39.54881 -86.39064 2813 ft 207 kts 251°
2026-05-05 23:31 39.54573 -86.40872 2500 ft 210 kts 293°
2026-05-05 23:31 39.55359 -86.42411 2582 ft 211 kts 313°
2026-05-05 23:31 39.56412 -86.44004 2885 ft 227 kts 317°
2026-05-05 23:32 39.57635 -86.44869 3061 ft 190 kts 11°
2026-05-05 23:32 39.58867 -86.44375 2938 ft 183 kts 17°
2026-05-05 23:32 39.60121 -86.43750 2590 ft 209 kts 24°
2026-05-05 23:32 39.61374 -86.42663 2157 ft 206 kts 41°
2026-05-05 23:33 39.62335 -86.41478 2078 ft 184 kts 45°
2026-05-05 23:33 39.63172 -86.40218 1925 ft 184 kts 43°
2026-05-05 23:33 39.63975 -86.39008 1621 ft 166 kts 46°
2026-05-05 23:33 39.64768 -86.37942 1562 ft 165 kts 46°
2026-05-05 23:34 39.65657 -86.36974 1570 ft 169 kts 31°
2026-05-05 23:34 39.66690 -86.36269 1723 ft 166 kts 27°
2026-05-05 23:34 39.67743 -86.35667 1793 ft 167 kts 19°
2026-05-05 23:34 39.68814 -86.35098 1906 ft 167 kts 36°
2026-05-05 23:35 39.69351 -86.33737 1121 ft 181 kts 46°
2026-05-05 23:35 39.70162 -86.32664 992 ft 152 kts 41°
2026-05-05 23:35 39.70916 -86.31730 787 ft 144 kts 41°
2026-05-05 23:35 39.71399 -86.31113 784 ft 43 kts 44°
2026-05-05 23:36 39.71559 -86.30910 786 ft 30 kts 44°
2026-05-05 23:36 39.71704 -86.30725 783 ft 28 kts 45°
2026-05-05 23:36 39.71842 -86.30550 779 ft 27 kts 44°
2026-05-05 23:36 39.71976 -86.30398 780 ft 25 kts 30°
2026-05-05 23:37 39.72081 -86.30372 780 ft 0 kts 352°
2026-05-05 23:37 39.72086 -86.30373 780 ft 3 kts 352°
2026-05-05 23:37 39.72152 -86.30384 782 ft 15 kts 352°
2026-05-05 23:38 39.72270 -86.30329 785 ft 23 kts 45°
2026-05-05 23:38 39.72401 -86.30163 786 ft 28 kts 45°
2026-05-05 23:38 39.72516 -86.30060 783 ft 17 kts 338°
2026-05-05 23:38 39.72550 -86.30200 782 ft 22 kts 268°
2026-05-05 23:39 39.72520 -86.30282 782 ft 4 kts 130°
2026-05-05 23:39 39.72508 -86.30264 782 ft 0 kts 129°